Flag Weather past 2 weeks in Rotterdam, Netherlands

Now
46 °F

Passing clouds.


Feels Like: 42 °F
Forecast: 39 / 47 °F
Wind: 8 mph from Northwest

Location: Rotterdam Zestienhoven Airport

Current Time: Nov 24, 2014 at 5:14:54 AM

Latest Report: Nov 24, 2014 at 4:25 AM


Visibility: N/A

Pressure: 30.12 "Hg

Humidity: 93%

Dew point: 45 °F

Location of RotterdamLocation

Historic Weather in Rotterdam — Graph

°F

Rotterdam temperature yesterday

Maximum temperature yesterday: 57 °F (at 12:25 PM)
Minimum temperature yesterday: 50 °F (at 2:25 AM)
Average temperature yesterday: 53 °F

Past Weeks' High & Low Weather Summary

 TemperatureHumidityPressure
High57 °F (Nov 9, 1:55 PM)100% (Nov 10, 6:55 AM)30.33 "Hg (Nov 10, 6:55 AM)
Low37 °F (Nov 13, 6:25 AM)67% (Nov 9, 2:55 PM)29.47 "Hg (Nov 16, 5:55 PM)
Average49 °F89%29.82 "Hg
* Reported Nov 9 3:25 AM — Nov 24 3:25 AM, Rotterdam, Weather by CustomWeather, © 2014

Note: Actual official high and low records may vary slightly from our data, if they occured in-between our weather recording intervals... More about our weather records

Advertising

Rotterdam weather history for previous 24 hours

 ConditionsComfort  
Time TempWeatherWind HumidityBarometerVisibility
3:25 AM
Nov 24
46 °FPartly cloudy.6 mph93%30.09 "HgN/A
2:55 AM48 °FMostly cloudy.8 mph94%30.09 "HgN/A
2:25 AM48 °FSprinkles. Passing clouds.6 mph94%30.07 "HgN/A
1:55 AM48 °FDrizzle. Overcast.5 mph94%30.07 "HgN/A
1:25 AM48 °FPassing clouds.6 mph94%30.07 "HgN/A
12:55 AM48 °FLight rain. Passing clouds.7 mph94%30.04 "HgN/A
12:25 AM50 °FRain showers. Passing clouds.10 mph94%30.04 "HgN/A
11:55 PM
Nov 23
50 °FLight rain. Partly cloudy.9 mph94%30.04 "Hg3 mi
11:25 PM50 °FPartly cloudy.12 mph94%30.01 "Hg3 mi
10:55 PM50 °FPassing clouds.12 mph94%30.01 "Hg2 mi
10:25 PM50 °FPassing clouds.14 mph94%29.98 "Hg2 mi
9:55 PM50 °FPartly cloudy.13 mph100%29.98 "Hg2 mi
9:25 PM50 °FDrizzle. Mostly cloudy.13 mph100%29.95 "Hg2 mi
8:55 PM52 °FPartly cloudy.16 mph94%29.95 "Hg5 mi
8:25 PM54 °FPartly cloudy.7 mph94%29.92 "Hg4 mi
7:55 PM55 °FPassing clouds.6 mph88%29.92 "Hg6 mi
7:25 PM55 °FDrizzle. Overcast.8 mph94%29.92 "HgN/A
6:55 PM55 °FDrizzle. Overcast.6 mph94%29.92 "HgN/A
6:25 PM55 °FPassing clouds.6 mph88%29.92 "HgN/A
5:55 PM55 °FClear.6 mph88%29.92 "HgN/A
5:25 PM55 °FLight rain. Passing clouds.5 mph88%29.92 "HgN/A
4:55 PM55 °FClear.7 mph88%29.92 "HgN/A
4:25 PM55 °FClear.6 mph88%29.92 "HgN/A
3:55 PM57 °FClear.7 mph82%29.92 "HgN/A
3:25 PM57 °FClear.8 mph82%29.92 "HgN/A
2:55 PM57 °FClear.8 mph82%29.92 "HgN/A
2:25 PM57 °FClear.9 mph82%29.95 "HgN/A
1:55 PM57 °FClear.9 mph82%29.95 "HgN/A
1:25 PM57 °FClear.9 mph82%29.95 "HgN/A
12:55 PM57 °FClear.10 mph82%29.95 "HgN/A
12:25 PM57 °FClear.10 mph82%29.98 "HgN/A
11:55 AM55 °FClear.9 mph82%29.98 "HgN/A
11:25 AM55 °FClear.9 mph82%30.01 "HgN/A
10:55 AM54 °FClear.8 mph88%30.01 "HgN/A
10:25 AM54 °FClear.9 mph88%30.01 "HgN/A
9:55 AM52 °FClear.7 mph94%30.01 "HgN/A
9:25 AM52 °FClear.7 mph88%30.01 "HgN/A
8:55 AM52 °FCool.8 mph88%30.01 "HgN/A
8:25 AM50 °FClear.9 mph94%30.01 "HgN/A
7:55 AM50 °FClear.9 mph94%29.98 "Hg6 mi
7:25 AM50 °FClear.6 mph94%30.01 "Hg5 mi
6:55 AM50 °FClear.7 mph94%30.01 "Hg4 mi
6:25 AM50 °FClear.7 mph100%30.01 "Hg4 mi
5:55 AM50 °FClear.6 mph94%30.01 "Hg4 mi
5:25 AM50 °FClear.5 mph94%30.01 "Hg5 mi
Weather by CustomWeather, © 2014

See weather overviewHow to use our weather pages